• Join FlightAware (Why Join?)
  • Login
  • US Flag 
08:00AM EST


 

Airport Tracker/Info


-or-


 

Live Flight TrackerFlight Track Log ✈ SKW6492 ✈ 23-Aug-2013 ✈ KDEN - KCOD

Flight Track Log - Related Links

Times and Time Zones

All times are in EDT time to prevent confusion due to time zone crossing. See the SKW6492 flight status page for this flight to view local times or setup timezone preferences in your user account.

Time Position Orientation Groundspeed Altitude Reporting Facility
EDT Latitude Longitude Course Direction KTS MPH feet Rate Location/Type
11:13PM 39.8333 -104.7500 346° North 180 207 6,400  Level Denver TRACON
11:14PM 39.8667 -104.8000 311° West 223 257 7,800 1,579 Climbing Denver TRACON
11:15PM 39.9000 -104.8833 298° West 268 308 9,400 1,579 Climbing Denver TRACON
11:16PM 40.4289 -104.8541 346° North  Level FlightAware Approximate
11:16PM 39.9667 -104.9333 330° Northwest 318 366 10,800  Level Denver TRACON
11:17PM 40.5741 -104.8997 348° North  Level FlightAware Approximate
11:17PM 40.0500 -104.9500 351° North 333 383 12,700  Level Denver TRACON
11:18PM 40.7193 -104.9453 346° North  Level FlightAware Approximate
11:18PM 40.1333 -104.9000 25° Northeast 333 383 14,400  Level Denver TRACON
11:18PM 40.1658 -104.8614 42° Northeast 338 389 14,900 1,253 Climbing Denver Center
11:19PM 40.2575 -104.8153 21° North 355 409 16,300 1,268 Climbing Denver Center
11:20PM 40.3692 -104.8078 North 369 425 17,500 1,073 Climbing Denver Center
11:21PM 40.4750 -104.8189 355° North 377 434 18,500 1,024 Climbing Denver Center
11:22PM 40.5861 -104.8303 356° North 392 451 19,600 1,024 Climbing Denver Center
11:23PM 40.6800 -104.8417 355° North 402 463 20,600 738 Climbing Denver Center
11:24PM 40.7953 -104.8528 356° North 377 434 21,100 622 Climbing Denver Center
11:25PM 40.9006 -104.9011 341° North 391 450 22,000 844 Climbing Denver Center
11:26PM 41.0383 -104.9708 339° North 402 463 23,000 1,220 Climbing Denver Center
11:27PM 41.1561 -105.0289 340° North 402 463 24,500 1,122 Climbing Denver Center
11:28PM 41.2564 -105.0794 339° North 403 464 25,300 878 Climbing Denver Center
11:29PM 41.3444 -105.1600 326° Northwest 403 464 26,300 683 Climbing Denver Center
11:30PM 41.4394 -105.2653 320° Northwest 399 459 26,700 488 Climbing Denver Center
11:32PM 41.5225 -105.3619 319° Northwest 409 471 27,300 533 Climbing Denver Center
11:33PM 41.6211 -105.4747 319° Northwest 415 478 27,900 622 Climbing Denver Center
11:34PM 41.7222 -105.5903 320° Northwest 424 488 28,700 634 Climbing Denver Center
11:35PM 41.8219 -105.7069 319° Northwest 425 489 29,200 393 Climbing Denver Center
11:36PM 41.9083 -105.8064 319° Northwest 424 488 29,500 400 Climbing Denver Center
11:37PM 41.9975 -105.9092 319° Northwest 434 499 30,100 618 Climbing Denver Center
11:38PM 42.1086 -106.0406 319° Northwest 421 484 30,900 537 Climbing Denver Center
11:39PM 42.1944 -106.1406 319° Northwest 423 487 31,200 403 Climbing Denver Center
11:40PM 42.2936 -106.2583 319° Northwest 424 488 31,800 356 Climbing Denver Center
11:41PM 42.3933 -106.3753 319° Northwest 425 489 32,000 98 Climbing Denver Center
11:42PM 42.4942 -106.4967 318° Northwest 433 498 32,000  Level Denver Center
11:43PM 42.5844 -106.6039 319° Northwest 446 513 32,000  Level Denver Center
11:44PM 42.6875 -106.7283 318° Northwest 447 514 32,000  Level Denver Center
11:45PM 42.7781 -106.8369 319° Northwest 452 520 32,000  Level Denver Center
11:47PM 42.8839 -106.9639 319° Northwest 454 522 32,000  Level Salt Lake Center
11:48PM 42.9761 -107.0781 318° Northwest 451 519 32,000  Level Salt Lake Center
11:49PM 43.0694 -107.1903 319° Northwest 447 514 32,000  Level Salt Lake Center
11:50PM 43.1622 -107.3042 318° Northwest 450 518 32,000  Level Salt Lake Center
11:51PM 43.2544 -107.4194 318° Northwest 448 516 32,000  Level Salt Lake Center
11:52PM 43.3469 -107.5344 318° Northwest 449 517 32,000  Level Salt Lake Center
11:53PM 43.4436 -107.6442 321° Northwest 451 519 32,000  Level Salt Lake Center
11:54PM 43.5533 -107.7403 328° Northwest 466 536 32,000 -1,366 Level Salt Lake Center
11:55PM 43.6831 -107.8489 329° Northwest 456 525 29,200 -2,705 Descending Salt Lake Center
11:56PM 43.7958 -107.9200 336° Northwest 446 513 26,500 -2,803 Descending Salt Lake Center
11:57PM 43.9022 -107.9983 332° Northwest 434 499 23,500 -2,754 Descending Salt Lake Center
11:58PM 43.9944 -108.0867 325° Northwest 406 467 20,900 -2,459 Descending Salt Lake Center
11:59PM 44.0928 -108.1503 335° Northwest 394 453 18,500 -2,293 Descending Salt Lake Center
12:00AM 44.1969 -108.1906 345° North 391 450 16,200 -2,293 Descending Salt Lake Center
12:01AM 44.2911 -108.2539 334° Northwest 382 440 13,800 -2,213 Descending Salt Lake Center
12:02AM 44.3639 -108.3444 318° Northwest 362 417 11,700 -1,623 Descending Salt Lake Center
12:03AM 44.4475 -108.3947 337° Northwest 340 391 10,500 -1,279 Descending Salt Lake Center
12:04AM 44.5206 -108.4478 333° Northwest 318 366 9,100 -738 Descending Salt Lake Center
12:05AM 44.5492 -108.5417 293° West 285 328 9,000 -49 Descending Salt Lake Center
12:06AM 44.5667 -108.6317 285° West 260 299 9,000 -488 Level Salt Lake Center
12:07AM 44.6128 -108.7092 310° West 240 276 8,000 -488 Descending Salt Lake Center
12:08AM 44.6553 -108.7617 319° Northwest 222 255 8,000 -246 Level Salt Lake Center
12:09AM 44.6286 -108.8317 242° Southwest 210 242 7,500 -246 Descending Salt Lake Center
12:10AM 44.5947 -108.8944 233° Southwest 208 239 7,500 -590 Level Salt Lake Center
12:11AM 44.5608 -108.9547 232° Southwest 200 230 6,300 -1,180 Descending Salt Lake Center